Regional Weather Roundup
Issued by NWS Sioux Falls, SD

Home | Current Version | Previous Version | Text Only | Print | Product List | Glossary On
Versions: 1 2 3 4 5 6 7 8 9 10 11 12 13 14 15 16 17 18 19 20 21 22 23 24 25 26 27 28 29 30 31 32 33 34 35 36 37 38 39 40 41 42 43 44 45 46 47 48 49 50
000
ASUS43 KFSD 312102
RWRFSD

WEATHER ROUNDUP FOR SE SOUTH DAKOTA/SW MINNESOTA/NW IOWA
NATIONAL WEATHER SERVICE SIOUX FALLS SD
400 PM CDT WED AUG 31 2016

NOTE: "FAIR" INDICATES FEW OR NO CLOUDS BELOW 12,000 FEET WITH NO
SIGNIFICANT WEATHER AND OR OBSTRUCTIONS TO VISIBILITY.


SDZ038>040-050-052>070-312200-
SOUTHEAST SOUTH DAKOTA

CITY           SKY/WX    TMP DP  RH WIND       PRES   REMARKS
CHAMBERLAIN    MOSUNNY   86  65  50 SE5       30.18F
HURON          PTSUNNY   81  61  50 SW3       30.17F
MADISON        FAIR      77  54  44 CALM      30.22S
MITCHELL       SUNNY     84  57  39 SE9       30.18F
SIOUX FALLS    MOSUNNY   83  58  42 E8        30.19F
WINNER         FAIR      86  64  47 SE9       30.19S
YANKTON        SUNNY     81  57  44 E8        30.17S
$$

MNZ071-072-080-081-089-090-097-098-312200-
SOUTHWEST MINNESOTA

CITY           SKY/WX    TMP DP  RH WIND       PRES   REMARKS
FAIRMONT       SUNNY     77  58  51 N8        30.19F
JACKSON        SUNNY     77  54  44 VRB6      30.21F
LUVERNE        SUNNY     79  55  44 NE6       30.20F
MARSHALL       SUNNY     78  59  51 N6        30.20F
MONTEVIDEO     SUNNY     82  61  47 NE6       30.21F
REDWOOD FALLS  SUNNY     80  57  45 N8        30.19F
TRACY          SUNNY     79  61  54 N5        30.21S
WINDOM         SUNNY     77  55  47 N10       30.20F
$$

IAZ001>003-012>014-020>022-031-032-NEZ013-014-SDZ071-312200-
NORTHWEST IOWA

CITY           SKY/WX    TMP DP  RH WIND       PRES   REMARKS
CHEROKEE       SUNNY     79  58  48 NE8       30.18F
DENISON        SUNNY     77  59  53 NE8       30.15F
ESTHERVILLE    SUNNY     78  60  53 N10       30.19F
LE MARS        SUNNY     81  57  44 NE10      30.19S
ORANGE CITY    SUNNY     81  61  50 E3        30.19F
SHELDON        SUNNY     79  59  50 N7        30.18F
SIOUX CITY     SUNNY     83  60  45 NE7       30.17F
SPENCER        SUNNY     79  55  43 N10       30.19F
STORM LAKE     SUNNY     77  59  53 N9        30.19F
$$

ABBREVIATIONS USED IN REMARKS
   TC - TEMPERATURE IN CELSIUS
  WCI - WIND CHILL INDEX
   HX - HEAT INDEX
  VSB - VISIBILITY





USA.gov is the U.S. government's official web portal to all federal, state and local government web resources and services.